This is the latest recevied weather packets stored in our database for station/object GOLDWX. If no packets are shown the sender has not sent any weather packets the latest 10 day(s).
| Time | Temp. | Humidity | Pressure | Rain* | Wind** | Luminosity | Snow |
|---|---|---|---|---|---|---|---|
| 1778189337 | 28.89° C | 11% | 1016.1 hPa | 0 mm | - | - | - |
| 1778189036 | 28.33° C | 11% | 1016.3 hPa | 0 mm | - | - | - |
| 1778188435 | 28.89° C | 10% | 1016.3 hPa | 0 mm | - | - | - |
| 1778188134 | 30° C | 10% | 1016.3 hPa | 0 mm | - | - | - |
| 1778187532 | 30° C | 12% | 1016.5 hPa | 0 mm | - | - | - |
| 1778187231 | 29.44° C | 12% | 1016.6 hPa | 0 mm | - | - | - |
| 1778186629 | 28.33° C | 12% | 1016.6 hPa | 0 mm | - | - | - |
| 1778186329 | 27.78° C | 11% | 1016.8 hPa | 0 mm | - | - | - |
| 1778185728 | 27.78° C | 11% | 1016.8 hPa | 0 mm | - | - | - |
| 1778185426 | 28.33° C | 11% | 1016.8 hPa | 0 mm | - | - | - |
| 1778184825 | 27.78° C | 11% | 1016.9 hPa | 0 mm | - | - | - |
| 1778184524 | 27.78° C | 10% | 1016.9 hPa | 0 mm | - | - | - |
| 1778183621 | 30° C | 10% | 1017.1 hPa | 0 mm | - | - | - |
| 1778183021 | 29.44° C | 12% | 1017.2 hPa | 0 mm | - | - | - |
| 1778182719 | 28.89° C | 12% | 1017.2 hPa | 0 mm | - | - | - |
| 1778182117 | 27.22° C | 12% | 1017.5 hPa | 0 mm | - | - | - |
| 1778181817 | 26.67° C | 12% | 1017.6 hPa | 0 mm | - | - | - |
| 1778181214 | 26.67° C | 13% | 1017.6 hPa | 0 mm | - | - | - |
| 1778180914 | 26.67° C | 13% | 1017.8 hPa | 0 mm | - | - | - |
| 1778180312 | 25.56° C | 14% | 1017.8 hPa | 0 mm | - | - | - |
| 1778180011 | 26.11° C | 13% | 1018 hPa | 0 mm | - | - | - |
| 1778179409 | 25.56° C | 15% | 1017.9 hPa | 0 mm | - | - | - |
| 1778179109 | 25.56° C | 14% | 1018 hPa | 0 mm | - | - | - |
| 1778178507 | 26.11° C | 15% | 1018 hPa | 0 mm | - | - | - |
| 1778178206 | 26.11° C | 15% | 1018.1 hPa | 0 mm | - | - | - |
* Rain since midnight (hover to see other rain measurements)
** Current wind speed in m/s (hover to see current wind gust speed)